Location: Quaker Farms
(41.4276°N, 73.1557°W)
Time: 19:21:41
(UTC+00:00)

S-56A Canister/Altair - Pass Details

Date: 14 June 2021
Orbit: 631 x 2501 km, 38.9° (Epoch: 30 July)

Event Time Altitude Azimuth Distance (km) Brightness Sun altitude
Rises 15:39:15 0° 279° (W) 3,683 10.8 66.2°
Reaches altitude 10° 15:41:35 10° 273° (W) 2,927 10.4 66.5°
Maximum altitude 15:48:31 48° 201° (SSW) 1,788 10.5 67.4°
Drops below altitude 10° 15:58:54 10° 132° (SE) 4,316 11.8 68.6°
Sets 16:03:06 0° 128° (SE) 5,581 12.2 69.1°
